Location: Eboldshausen
(51.7766°N, 10.0050°E)
Time: 08:14:56
(UTC+00:00)

Cosmos 990 Rocket - Pass Details

Date: 15 June 2024
Orbit: 744 x 766 km, 74.0° (Epoch: 22 July)

Event Time Altitude Azimuth Distance (km) Brightness Sun altitude
Exits shadow 00:08:01 22° 189° (S) 1,599 5.0 -14.2°
Maximum altitude 00:11:20 69° 111° (ESE) 799 4.0 -14.1°
Drops below altitude 10° 00:16:27 10° 29° (NNE) 2,271 7.7 -13.9°
Sets 00:18:49 0° 27° (NNE) 3,200 8.9 -13.8°
